When you browse on this site, cookies collect data to enhance your experience and personalize the content and advertising you see.
Visit our Privacy Policy to learn more. By continuing to use the site, you agree to this use of cookies and data.
  • In Österreich
  • Länderverzeichnis
  • Für 7 Tage
  • Wassertemperatur
  • Wetterkarte
  • News
  • Widgets
  • user-avatar
    Anmelden

    Stündliche Wetter Hlushkovets'ke

    Heute, 23 September, Montag

    Zeit Temperatur Niederschläge Wind Luftdruck Luftfeuchtigkeit
    00:00 +12°C° 0 mm 2 m/S 733 mmHg 78%
    01:00 +10°C° 0 mm 2 m/S 733 mmHg 79%
    02:00 +11°C° 0 mm 1 m/S 733 mmHg 78%
    03:00 +10°C° 0 mm 1 m/S 733 mmHg 80%
    04:00 +10°C° 0 mm 1 m/S 733 mmHg 81%
    05:00 +9°C° 0 mm 2 m/S 733 mmHg 83%
    06:00 +10°C° 0 mm 2 m/S 733 mmHg 79%
    07:00 +12°C° 0 mm 1 m/S 734 mmHg 75%
    08:00 +13°C° 0 mm 2 m/S 734 mmHg 71%
    09:00 +15°C° 0 mm 2 m/S 734 mmHg 66%
    10:00 +16°C° 0 mm 2 m/S 734 mmHg 60%
    11:00 +18°C° 0 mm 2 m/S 735 mmHg 55%
    12:00 +18°C° 0 mm 3 m/S 734 mmHg 54%
    13:00 +19°C° 0 mm 3 m/S 734 mmHg 52%
    14:00 +19°C° 0 mm 3 m/S 734 mmHg 51%
    15:00 +18°C° 0 mm 4 m/S 734 mmHg 55%
    16:00 +16°C° 0 mm 5 m/S 734 mmHg 59%
    17:00 +14°C° 0 mm 5 m/S 734 mmHg 62%
    18:00 +12°C° 0 mm 5 m/S 734 mmHg 65%
    19:00 +10°C° 0 mm 5 m/S 734 mmHg 68%
    20:00 +8°C° 0 mm 5 m/S 735 mmHg 71%
    21:00 +7°C° 0 mm 4 m/S 735 mmHg 71%
    22:00 +7°C° 0 mm 4 m/S 735 mmHg 72%
    23:00 +6°C° 0 mm 4 m/S 735 mmHg 73%

    Morgen, 24 September, Dienstag

    Zeit Temperatur Niederschläge Wind Luftdruck Luftfeuchtigkeit
    00:00 +6°C° 0 mm 4 m/S 735 mmHg 73%
    01:00 +5°C° 0 mm 3 m/S 735 mmHg 73%
    02:00 +5°C° 0 mm 3 m/S 735 mmHg 73%
    03:00 +5°C° 0 mm 3 m/S 735 mmHg 72%
    04:00 +4°C° 0 mm 3 m/S 735 mmHg 71%
    05:00 +4°C° 0 mm 3 m/S 735 mmHg 71%
    06:00 +5°C° 0 mm 3 m/S 735 mmHg 65%
    07:00 +6°C° 0 mm 4 m/S 735 mmHg 60%
    08:00 +7°C° 0 mm 4 m/S 735 mmHg 55%
    09:00 +10°C° 0 mm 4 m/S 735 mmHg 52%
    10:00 +12°C° 0 mm 4 m/S 735 mmHg 49%
    11:00 +14°C° 0 mm 4 m/S 735 mmHg 47%
    12:00 +15°C° 0 mm 4 m/S 735 mmHg 46%
    13:00 +17°C° 0 mm 4 m/S 734 mmHg 45%
    14:00 +18°C° 0 mm 3 m/S 734 mmHg 44%
    15:00 +18°C° 0 mm 3 m/S 734 mmHg 46%
    16:00 +18°C° 0 mm 3 m/S 733 mmHg 48%
    17:00 +17°C° 0 mm 2 m/S 733 mmHg 50%
    18:00 +14°C° 0 mm 3 m/S 733 mmHg 55%
    19:00 +13°C° 0 mm 3 m/S 733 mmHg 60%
    20:00 +11°C° 0 mm 3 m/S 733 mmHg 65%
    21:00 +10°C° 0 mm 3 m/S 733 mmHg 64%
    22:00 +10°C° 0 mm 3 m/S 733 mmHg 64%
    23:00 +8°C° 0 mm 4 m/S 733 mmHg 63%

    übermorgen, 25 September, Mittwoch

    Zeit Temperatur Niederschläge Wind Luftdruck Luftfeuchtigkeit
    00:00 +9°C° 0 mm 3 m/S 733 mmHg 62%
    01:00 +8°C° 0 mm 3 m/S 733 mmHg 60%
    02:00 +8°C° 0 mm 3 m/S 733 mmHg 59%
    03:00 +8°C° 0 mm 3 m/S 733 mmHg 59%
    04:00 +7°C° 0 mm 3 m/S 733 mmHg 60%
    05:00 +7°C° 0 mm 3 m/S 732 mmHg 60%
    06:00 +9°C° 0 mm 3 m/S 732 mmHg 64%
    07:00 +10°C° 0 mm 4 m/S 732 mmHg 67%
    08:00 +12°C° 0 mm 4 m/S 732 mmHg 71%
    09:00 +14°C° 0 mm 5 m/S 732 mmHg 66%
    10:00 +16°C° 0 mm 5 m/S 732 mmHg 62%
    11:00 +19°C° 0 mm 6 m/S 732 mmHg 58%
    12:00 +20°C° 0 mm 6 m/S 732 mmHg 54%
    13:00 +20°C° 0 mm 6 m/S 732 mmHg 49%
    14:00 +21°C° 0 mm 6 m/S 731 mmHg 45%
    15:00 +20°C° 0 mm 5 m/S 731 mmHg 47%
    16:00 +20°C° 0 mm 4 m/S 731 mmHg 50%
    17:00 +19°C° 0 mm 3 m/S 730 mmHg 52%
    18:00 +18°C° 0.1 mm 3 m/S 731 mmHg 62%
    19:00 +16°C° 0.1 mm 3 m/S 731 mmHg 73%
    20:00 +14°C° 0.1 mm 3 m/S 731 mmHg 83%
    21:00 +13°C° 0.4 mm 3 m/S 730 mmHg 87%
    22:00 +13°C° 0.4 mm 3 m/S 730 mmHg 90%
    23:00 +13°C° 0.4 mm 3 m/S 730 mmHg 93%

    26 September, Donnerstag

    Zeit Temperatur Niederschläge Wind Luftdruck Luftfeuchtigkeit
    00:00 +14°C° 0.1 mm 2 m/S 730 mmHg 93%
    01:00 +14°C° 0.1 mm 2 m/S 730 mmHg 94%
    02:00 +14°C° 0.1 mm 2 m/S 730 mmHg 94%
    03:00 +13°C° 0 mm 2 m/S 730 mmHg 94%
    04:00 +13°C° 0 mm 1 m/S 730 mmHg 95%
    05:00 +13°C° 0 mm 1 m/S 730 mmHg 95%
    06:00 +13°C° 0 mm 1 m/S 730 mmHg 93%
    07:00 +14°C° 0 mm 1 m/S 730 mmHg 90%
    08:00 +14°C° 0 mm 1 m/S 730 mmHg 88%
    09:00 +15°C° 0 mm 2 m/S 730 mmHg 82%
    10:00 +16°C° 0 mm 2 m/S 730 mmHg 75%
    11:00 +17°C° 0 mm 2 m/S 731 mmHg 69%
    12:00 +18°C° 0 mm 2 m/S 731 mmHg 65%
    13:00 +19°C° 0 mm 2 m/S 731 mmHg 61%
    14:00 +20°C° 0 mm 2 m/S 731 mmHg 57%
    15:00 +19°C° 0.1 mm 2 m/S 731 mmHg 61%
    16:00 +19°C° 0.1 mm 2 m/S 731 mmHg 64%
    17:00 +19°C° 0.1 mm 1 m/S 731 mmHg 67%
    18:00 +18°C° 0.1 mm 1 m/S 731 mmHg 73%
    19:00 +16°C° 0.1 mm 1 m/S 731 mmHg 79%
    20:00 +15°C° 0.1 mm 1 m/S 731 mmHg 84%
    21:00 +14°C° 0 mm 1 m/S 731 mmHg 86%
    22:00 +14°C° 0 mm 1 m/S 732 mmHg 88%
    23:00 +13°C° 0 mm 1 m/S 732 mmHg 90%

    27 September, Freitag

    Zeit Temperatur Niederschläge Wind Luftdruck Luftfeuchtigkeit
    00:00 +13°C° 0 mm 1 m/S 732 mmHg 91%
    01:00 +13°C° 0 mm 1 m/S 732 mmHg 92%
    02:00 +12°C° 0 mm 2 m/S 732 mmHg 93%
    03:00 +12°C° 0 mm 2 m/S 732 mmHg 93%
    04:00 +12°C° 0 mm 2 m/S 732 mmHg 94%
    05:00 +10°C° 0 mm 2 m/S 733 mmHg 94%
    06:00 +12°C° 0 mm 2 m/S 733 mmHg 92%
    07:00 +13°C° 0 mm 2 m/S 733 mmHg 90%
    08:00 +14°C° 0 mm 2 m/S 733 mmHg 87%
    09:00 +15°C° 0 mm 2 m/S 733 mmHg 80%
    10:00 +17°C° 0 mm 2 m/S 734 mmHg 73%
    11:00 +18°C° 0 mm 2 m/S 734 mmHg 67%
    12:00 +18°C° 0 mm 3 m/S 734 mmHg 64%
    13:00 +19°C° 0 mm 3 m/S 734 mmHg 62%
    14:00 +19°C° 0 mm 3 m/S 734 mmHg 60%
    15:00 +19°C° 0 mm 3 m/S 734 mmHg 62%
    16:00 +18°C° 0 mm 3 m/S 734 mmHg 64%
    17:00 +18°C° 0 mm 2 m/S 734 mmHg 66%
    18:00 +16°C° 0 mm 2 m/S 734 mmHg 71%
    19:00 +15°C° 0 mm 2 m/S 734 mmHg 77%
    20:00 +14°C° 0 mm 2 m/S 735 mmHg 83%
    21:00 +13°C° 0 mm 2 m/S 735 mmHg 85%
    22:00 +13°C° 0 mm 1 m/S 735 mmHg 88%
    23:00 +12°C° 0 mm 1 m/S 735 mmHg 90%

    28 September, Samstag

    Zeit Temperatur Niederschläge Wind Luftdruck Luftfeuchtigkeit
    00:00 +12°C° 0 mm 1 m/S 735 mmHg 91%
    01:00 +11°C° 0 mm 1 m/S 736 mmHg 92%
    02:00 +11°C° 0 mm 1 m/S 736 mmHg 92%
    03:00 +11°C° 0 mm 1 m/S 736 mmHg 92%
    04:00 +11°C° 0 mm 1 m/S 736 mmHg 93%
    05:00 +10°C° 0 mm 2 m/S 736 mmHg 93%
    06:00 +12°C° 0 mm 2 m/S 736 mmHg 89%
    07:00 +13°C° 0 mm 2 m/S 736 mmHg 86%
    08:00 +14°C° 0 mm 2 m/S 736 mmHg 83%
    09:00 +16°C° 0 mm 2 m/S 736 mmHg 74%
    10:00 +18°C° 0 mm 3 m/S 736 mmHg 66%
    11:00 +19°C° 0 mm 3 m/S 737 mmHg 58%
    12:00 +20°C° 0 mm 3 m/S 736 mmHg 56%
    13:00 +20°C° 0 mm 2 m/S 736 mmHg 55%
    14:00 +20°C° 0 mm 2 m/S 735 mmHg 53%
    15:00 +20°C° 0 mm 2 m/S 735 mmHg 55%
    16:00 +20°C° 0 mm 2 m/S 735 mmHg 56%
    17:00 +20°C° 0 mm 1 m/S 735 mmHg 58%
    18:00 +18°C° 0 mm 2 m/S 735 mmHg 61%
    19:00 +17°C° 0 mm 2 m/S 735 mmHg 64%
    20:00 +16°C° 0 mm 2 m/S 735 mmHg 67%
    21:00 +15°C° 0 mm 2 m/S 735 mmHg 70%
    22:00 +15°C° 0 mm 2 m/S 735 mmHg 72%
    23:00 +14°C° 0 mm 2 m/S 735 mmHg 75%
    Mehr zeigen